Change the Weather History Date:

Sunday, November 27, 2011

  Actual Average (KLOZ) Record (KLOZ)
Temperature  
Mean Temperature 53 °F 44 °F  
Max Temperature 62 °F 54 °F 76 °F (1990)
Min Temperature 42 °F 34 °F 17 °F (1977)
Degree Days  
Heating Degree Days 12 21  
Month to date heating degree days 459  
Since 1 July heating degree days 765  
Cooling Degree Days 0 0  
Month to date cooling degree days 0  
Growing Degree Days 3 (Base 50)    
Moisture  
Dew Point 51 °F    
Average Humidity 84    
Maximum Humidity 100    
Minimum Humidity 55    
Precipitation  
Precipitation 0.00 in 0.14 in 2.28 in (1973)
Month to date precipitation 3.39  
Sea Level Pressure  
Sea Level Pressure 29.91 in    
Wind  
Wind Speed 8 mph (SSW)    
Max Wind Speed 16 mph    
Max Gust Speed 25 mph    
Visibility 7 miles    
Events      
T = Trace of Precipitation, MM = Missing Value Source: NWS Daily Summary

Daily Weather History Graph

Daily Weather History Graph

Search for Another Location

Airport or City:

Trip Planner

Search our weather history database for the weather conditions in past years. The results will help you decide how hot, cold, wet, or windy it might be!

Date:

Astronomy

Nov. 27, 2011 Rise Set
Actual Time 7:29 AM EST 5:20 PM EST
Civil Twilight 7:00 AM EST 5:48 PM EST
Nautical Twilight 6:28 AM EST 6:21 PM EST
Astronomical Twilight 5:57 AM EST 6:52 PM EST
Moon 9:53 AM EST (11/27) 7:58 PM EST (11/27)
Length of Visible Light 10h 48m
Length of Day
9h 50m
Waxing Crescent, 8% of the Moon is Illuminated
Nov 27
Waxing Crescent
Dec 2
First Quarter
Dec 10
Full
Dec 17
Last Quarter
Dec 24
New

Hourly Weather History & Observations

Time (EST) Temp. Windchill Dew Point Humidity Pressure Visibility Wind Dir Wind Speed Gust Speed Precip Events Conditions
12:55 AM 59.0 °F - 46.4 °F 63% 29.98 in 10.0 mi South 9.2 mph - N/A   Overcast
1:15 AM 59.0 °F - 46.4 °F 63% 29.97 in 10.0 mi South 5.8 mph - N/A   Overcast
1:35 AM 59.0 °F - 46.4 °F 63% 29.96 in 10.0 mi South 6.9 mph - N/A   Overcast
1:55 AM 60.8 °F - 46.4 °F 59% 29.95 in 10.0 mi SSE 9.2 mph - N/A   Overcast
2:15 AM 60.8 °F - 46.4 °F 59% 29.94 in 10.0 mi SSE 5.8 mph - N/A   Overcast
2:35 AM 60.8 °F - 46.4 °F 59% 29.93 in 10.0 mi SSE 5.8 mph - N/A   Overcast
2:55 AM 60.8 °F - 46.4 °F 59% 29.92 in 10.0 mi SSE 9.2 mph - N/A   Overcast
3:15 AM 60.8 °F - 46.4 °F 59% 29.91 in 10.0 mi South 8.1 mph - N/A   Overcast
3:35 AM 62.6 °F - 46.4 °F 55% 29.91 in 10.0 mi South 11.5 mph 18.4 mph N/A   Overcast
3:55 AM 62.6 °F - 46.4 °F 55% 29.91 in 10.0 mi South 10.4 mph - N/A   Overcast
4:15 AM 62.6 °F - 48.2 °F 59% 29.91 in 10.0 mi South 8.1 mph - N/A   Overcast
4:35 AM 60.8 °F - 48.2 °F 63% 29.91 in 10.0 mi SSW 8.1 mph - N/A   Overcast
4:55 AM 59.0 °F - 50.0 °F 72% 29.92 in 10.0 mi South 4.6 mph - N/A   Overcast
5:15 AM 59.0 °F - 50.0 °F 72% 29.90 in 10.0 mi South 3.5 mph - N/A   Overcast
5:35 AM 59.0 °F - 50.0 °F 72% 29.90 in 10.0 mi SE 4.6 mph - N/A   Overcast
5:55 AM 57.2 °F - 51.8 °F 82% 29.89 in 10.0 mi SSE 4.6 mph - N/A   Overcast
6:15 AM 59.0 °F - 51.8 °F 77% 29.89 in 10.0 mi South 6.9 mph - N/A   Overcast
6:35 AM 59.0 °F - 51.8 °F 77% 29.88 in 10.0 mi SSE 5.8 mph - N/A   Overcast
7:35 AM 57.2 °F - 51.8 °F 82% 29.88 in 10.0 mi SSE 6.9 mph - N/A   Overcast
8:15 AM 57.2 °F - 53.6 °F 88% 29.86 in 10.0 mi SSE 8.1 mph - N/A   Overcast
8:35 AM 59.0 °F - 53.6 °F 82% 29.87 in 10.0 mi South 9.2 mph - N/A   Overcast
8:55 AM 59.0 °F - 53.6 °F 82% 29.87 in 10.0 mi South 9.2 mph 17.3 mph N/A   Overcast
9:15 AM 59.0 °F - 53.6 °F 82% 29.89 in 10.0 mi SSW 10.4 mph - N/A   Overcast
9:35 AM 59.0 °F - 55.4 °F 88% 29.90 in 7.0 mi SSW 9.2 mph - N/A   Overcast
9:55 AM 59.0 °F - 55.4 °F 88% 29.90 in 5.0 mi SSW 9.2 mph - N/A   Overcast
10:15 AM 59.0 °F - 55.4 °F 88% 29.91 in 5.0 mi SSW 12.7 mph - N/A   Overcast
10:35 AM 59.0 °F - 55.4 °F 88% 29.92 in 5.0 mi SSW 10.4 mph 18.4 mph N/A   Overcast
10:55 AM 59.0 °F - 55.4 °F 88% 29.93 in 5.0 mi SSW 11.5 mph 18.4 mph N/A   Overcast
11:15 AM 59.0 °F - 55.4 °F 88% 29.93 in 4.0 mi SSW 9.2 mph - N/A   Overcast
11:35 AM 59.0 °F - 57.2 °F 94% 29.93 in 5.0 mi SSW 11.5 mph - N/A   Overcast
11:55 AM 59.0 °F - 57.2 °F 94% 29.92 in 3.0 mi South 12.7 mph 20.7 mph N/A   Overcast
12:15 PM 59.0 °F - 57.2 °F 94% 29.91 in 3.0 mi SSW 13.8 mph 21.9 mph N/A   Overcast
12:35 PM 59.0 °F - 57.2 °F 94% 29.91 in 2.5 mi SSW 11.5 mph 19.6 mph N/A   Overcast
12:55 PM 59.0 °F - 57.2 °F 94% 29.90 in 2.5 mi SSW 13.8 mph 20.7 mph N/A   Overcast
1:15 PM 59.0 °F - 57.2 °F 94% 29.90 in 2.5 mi SSW 16.1 mph 25.3 mph N/A   Overcast
1:35 PM 59.0 °F - 57.2 °F 94% 29.90 in 2.0 mi SSW 12.7 mph 23.0 mph N/A   Overcast
1:55 PM 59.0 °F - 57.2 °F 94% 29.90 in 3.0 mi SW 11.5 mph - N/A   Overcast
2:15 PM 57.2 °F - 55.4 °F 94% 29.89 in 4.0 mi SSW 10.4 mph - N/A   Overcast
2:35 PM 57.2 °F - 55.4 °F 94% 29.88 in 5.0 mi SW 9.2 mph - N/A   Overcast
2:55 PM 57.2 °F - 55.4 °F 94% 29.88 in 7.0 mi WSW 5.8 mph - N/A   Overcast
3:15 PM 57.2 °F - 55.4 °F 94% 29.89 in 7.0 mi WSW 4.6 mph - N/A   Overcast
3:35 PM 57.2 °F - 55.4 °F 94% 29.89 in 7.0 mi South 5.8 mph - N/A   Overcast
3:55 PM 57.2 °F - 55.4 °F 94% 29.89 in 7.0 mi SSW 6.9 mph - N/A   Overcast
4:15 PM 57.2 °F - 55.4 °F 94% 29.89 in 7.0 mi SW 6.9 mph - N/A   Overcast
4:35 PM 57.2 °F - 55.4 °F 94% 29.90 in 10.0 mi SW 4.6 mph - N/A   Overcast
4:55 PM 57.2 °F - 55.4 °F 94% 29.90 in 7.0 mi West 4.6 mph - N/A   Overcast
5:15 PM 55.4 °F - 55.4 °F 100% 29.91 in 7.0 mi West 5.8 mph - N/A   Overcast
5:55 PM 51.8 °F - 50.0 °F 94% 29.92 in 5.0 mi NW 6.9 mph - N/A   Overcast
6:15 PM 50.0 °F - 50.0 °F 100% 29.93 in 5.0 mi West 8.1 mph - N/A   Overcast
6:35 PM 50.0 °F - 48.2 °F 94% 29.93 in 5.0 mi WNW 5.8 mph - N/A   Overcast
6:55 PM 48.2 °F - 48.2 °F 100% 29.92 in 7.0 mi NW 5.8 mph - N/A   Overcast
7:15 PM 48.2 °F - 48.2 °F 100% 29.92 in 10.0 mi WNW 4.6 mph - N/A   Overcast
7:35 PM 48.2 °F - 46.4 °F 93% 29.93 in 7.0 mi WNW 3.5 mph - N/A   Overcast
8:15 PM 46.4 °F 44.3 °F 44.6 °F 93% 29.93 in 7.0 mi NW 4.6 mph - N/A   Overcast
8:55 PM 46.4 °F 41.9 °F 44.6 °F 93% 29.94 in 5.0 mi NW 9.2 mph - N/A   Overcast
9:35 PM 44.6 °F 39.7 °F 44.6 °F 100% 29.96 in 4.0 mi NW 9.2 mph - N/A   Overcast
10:15 PM 44.6 °F 38.4 °F 42.8 °F 93% 29.96 in 7.0 mi NW 12.7 mph - N/A   Overcast
10:35 PM 44.6 °F 40.2 °F 42.8 °F 93% 29.96 in 7.0 mi NW 8.1 mph - N/A   Overcast
10:55 PM 44.6 °F 40.7 °F 42.8 °F 93% 29.96 in 5.0 mi NW 6.9 mph - N/A   Overcast
11:15 PM 44.6 °F 40.7 °F 42.8 °F 93% 29.95 in 5.0 mi NNW 6.9 mph - N/A   Overcast
11:55 PM 42.8 °F 39.3 °F 42.8 °F 100% 29.93 in 10.0 mi North 5.8 mph - N/A   Overcast